Location: Noverd
(38.0910°N, 121.6877°W)
Time: 03:27:39
(UTC+00:00)

Cosmos 1400 Rocket - Pass Details

Date: 13 February 2026
Orbit: 474 x 509 km, 81.1° (Epoch: 7 March)

Event Time Altitude Azimuth Distance (km) Brightness Sun altitude
Rises 13:58:39 0° 199° (SSW) 2,590 6.1 -12.4°
Reaches altitude 10° 14:00:48 10° 205° (SSW) 1,715 5.2 -12.0°
Maximum altitude 14:04:28 50° 281° (W) 656 2.8 -11.3°
Drops below altitude 10° 14:08:11 10° 358° (N) 1,738 5.3 -10.6°
Sets 14:10:23 0° 4° (N) 2,630 6.2 -10.2°
